FW6253 Weather Reports


Display with metric or nautical units.
time (UTC)temp
F
wind
direction
speed
MPH
gust
MPH
rain 1hr
in
rain 24hr
in
rain mn
in
humidity
%
barometer
mb
20220518022052 81 134 3.0 10.0 0.00 0.00 0.00 62 1011.9
20220518021615 82 157 3.0 8.0 0.00 0.00 0.00 62 1012.0
20220518021053 82 163 3.0 12.0 0.00 0.00 0.00 61 1011.9
20220518020551 82 159 2.0 14.0 0.00 0.00 0.00 60 1011.9
20220518020107 83 206 2.0 15.0 0.00 0.00 0.00 60 1011.9
20220518015554 83 194 4.0 15.0 0.00 0.00 0.00 59 1011.9
20220518015055 83 28 4.0 11.0 0.00 0.00 0.00 58 1011.9
20220518014559 83 173 4.0 10.0 0.00 0.00 0.00 57 1011.9
20220518014050 84 151 4.0 11.0 0.00 0.00 0.00 57 1011.8
20220518013550 84 151 3.0 11.0 0.00 0.00 0.00 56 1011.6
20220518013058 84 163 4.0 11.0 0.00 0.00 0.00 55 1011.6
20220518012554 84 59 3.0 11.0 0.00 0.00 0.00 55 1011.5
20220518012051 85 160 4.0 11.0 0.00 0.00 0.00 54 1011.5
20220518011555 85 175 4.0 11.0 0.00 0.00 0.00 54 1011.4
20220518011051 85 193 2.0 11.0 0.00 0.00 0.00 53 1011.3
20220518010553 86 146 3.0 12.0 0.00 0.00 0.00 53 1011.4
20220518010058 86 163 5.0 14.0 0.00 0.00 0.00 52 1011.3
20220518005558 86 209 3.0 15.0 0.00 0.00 0.00 51 1011.1
20220518005050 87 150 5.0 15.0 0.00 0.00 0.00 51 1011.3
20220518004600 87 163 5.0 12.0 0.00 0.00 0.00 49 1011.4
20220518004050 88 160 4.0 12.0 0.00 0.00 0.00 49 1011.3
20220518003555 88 146 5.0 14.0 0.00 0.00 0.00 48 1011.2
20220518003059 89 177 5.0 14.0 0.00 0.00 0.00 47 1011.2
20220518002552 89 129 6.0 12.0 0.00 0.00 0.00 46 1011.3
20220518002054 90 182 4.0 12.0 0.00 0.00 0.00 45 1011.1
20220518001601 90 215 4.0 12.0 0.00 0.00 0.00 44 1011.1
20220518001053 90 186 4.0 12.0 0.00 0.00 0.00 42 1011.1
20220518000553 91 312 4.0 16.0 0.00 0.00 0.00 40 1011.1
20220518000107 91 115 4.0 16.0 0.00 0.00 0.00 40 1011.1
20220517235555 91 236 3.0 10.0 0.00 0.00 0.00 39 1011.1
20220517235053 91 176 4.0 14.0 0.00 0.00 0.00 39 1011.1
20220517234607 92 160 5.0 14.0 0.00 0.00 0.00 38 1011.1
20220517234053 92 175 2.0 11.0 0.00 0.00 0.00 37 1011.0
20220517233552 93 205 3.0 11.0 0.00 0.00 0.00 35 1011.0
20220517233111 93 161 3.0 10.0 0.00 0.00 0.00 33 1011.0
20220517232559 93 201 3.0 9.0 0.00 0.00 0.00 31 1011.0
20220517232051 94 166 3.0 11.0 0.00 0.00 0.00 31 1010.9
20220517231611 94 175 4.0 11.0 0.00 0.00 0.00 30 1010.9
20220517231052 94 193 3.0 11.0 0.00 0.00 0.00 30 1011.0
20220517230551 95 186 3.0 11.0 0.00 0.00 0.00 30 1010.9
20220517230108 95 229 3.0 10.0 0.00 0.00 0.00 29 1010.9
20220517225552 95 155 3.0 12.0 0.00 0.00 0.00 29 1011.0
20220517225051 94 258 4.0 12.0 0.00 0.00 0.00 29 1011.0
20220517224606 94 132 3.0 10.0 0.00 0.00 0.00 29 1011.0
20220517224051 94 206 4.0 12.0 0.00 0.00 0.00 29 1011.0
20220517223553 95 190 5.0 12.0 0.00 0.00 0.00 28 1011.1
20220517223104 95 128 4.0 10.0 0.00 0.00 0.00 28 1011.1
20220517222551 95 138 3.0 9.0 0.00 0.00 0.00 28 1011.0
20220517222052 95 153 3.0 12.0 0.00 0.00 0.00 27 1011.1
20220517221612 95 126 3.0 12.0 0.00 0.00 0.00 27 1011.2
20220517221054 95 185 5.0 12.0 0.00 0.00 0.00 26 1011.3
20220517220554 96 150 3.0 12.0 0.00 0.00 0.00 26 1011.3
20220517220112 96 223 3.0 13.0 0.00 0.00 0.00 27 1011.3
20220517215552 96 182 4.0 13.0 0.00 0.00 0.00 27 1011.4
20220517215054 96 198 4.0 15.0 0.00 0.00 0.00 27 1011.4
20220517214607 96 144 4.0 15.0 0.00 0.00 0.00 26 1011.4
20220517214051 98 153 4.0 12.0 0.00 0.00 0.00 26 1011.5
20220517213552 97 244 5.0 11.0 0.00 0.00 0.00 25 1011.6
20220517213100 97 142 3.0 11.0 0.00 0.00 0.00 26 1011.6
20220517212556 98 151 2.0 10.0 0.00 0.00 0.00 26 1011.7
20220517212054 97 163 4.0 13.0 0.00 0.00 0.00 27 1011.7
20220517211558 97 196 5.0 13.0 0.00 0.00 0.00 27 1011.9
20220517211059 97 186 5.0 13.0 0.00 0.00 0.00 26 1012.0
20220517210552 97 227 3.0 15.0 0.00 0.00 0.00 27 1012.0
20220517210056 97 145 4.0 16.0 0.00 0.00 0.00 27 1012.1
20220517205555 97 151 6.0 16.0 0.00 0.00 0.00 28 1012.1
20220517205051 97 149 3.0 15.0 0.00 0.00 0.00 29 1012.1
20220517204600 97 176 5.0 15.0 0.00 0.00 0.00 28 1012.1
20220517204052 97 226 5.0 15.0 0.00 0.00 0.00 27 1012.1
20220517203551 96 164 4.0 11.0 0.00 0.00 0.00 28 1012.2
20220517203100 97 150 4.0 13.0 0.00 0.00 0.00 28 1012.3
20220517202555 98 159 4.0 13.0 0.00 0.00 0.00 28 1012.3
20220517202052 96 198 4.0 12.0 0.00 0.00 0.00 29 1012.5
20220517201609 97 134 3.0 12.0 0.00 0.00 0.00 29 1012.6
20220517201052 97 150 3.0 12.0 0.00 0.00 0.00 29 1012.6
20220517200556 96 192 4.0 11.0 0.00 0.00 0.00 29 1012.7
20220517200059 95 202 3.0 16.0 0.00 0.00 0.00 31 1012.7
20220517195553 95 188 6.0 16.0 0.00 0.00 0.00 31 1012.8
20220517195056 95 183 6.0 15.0 0.00 0.00 0.00 31 1013.1
20220517194601 95 182 4.0 12.0 0.00 0.00 0.00 30 1013.0
20220517194052 94 161 4.0 12.0 0.00 0.00 0.00 31 1013.1
20220517193554 95 175 4.0 10.0 0.00 0.00 0.00 32 1013.1
20220517193101 94 115 3.0 11.0 0.00 0.00 0.00 32 1013.1
20220517192555 94 122 4.0 11.0 0.00 0.00 0.00 33 1013.1
20220517192052 94 124 4.0 11.0 0.00 0.00 0.00 34 1013.2
20220517191614 94 97 4.0 11.0 0.00 0.00 0.00 34 1013.3
20220517191051 94 211 4.0 12.0 0.00 0.00 0.00 33 1013.3
20220517190552 94 167 5.0 12.0 0.00 0.00 0.00 33 1013.4
20220517190101 93 169 4.0 12.0 0.00 0.00 0.00 34 1013.4
20220517185552 93 195 4.0 12.0 0.00 0.00 0.00 35 1013.6
20220517185052 92 198 5.0 12.0 0.00 0.00 0.00 37 1013.4
20220517184605 92 194 4.0 12.0 0.00 0.00 0.00 37 1013.6
20220517184101 92 217 3.0 14.0 0.00 0.00 0.00 39 1013.6
20220517183552 93 182 5.0 14.0 0.00 0.00 0.00 38 1013.7
20220517183106 92 207 4.0 9.0 0.00 0.00 0.00 38 1013.8
20220517182551 91 171 4.0 14.0 0.00 0.00 0.00 39 1013.8
20220517182051 91 178 4.0 14.0 0.00 0.00 0.00 42 1013.9
20220517181605 91 175 4.0 10.0 0.00 0.00 0.00 43 1014.0
20220517181052 91 118 2.0 12.0 0.00 0.00 0.00 44 1014.0
20220517180553 90 141 2.0 12.0 0.00 0.00 0.00 45 1014.1
20220517180107 90 130 4.0 12.0 0.00 0.00 0.00 44 1014.2
20220517175552 90 205 3.0 8.0 0.00 0.00 0.00 46 1014.0
20220517175052 89 209 3.0 10.0 0.00 0.00 0.00 44 1014.1
20220517174603 89 205 4.0 10.0 0.00 0.00 0.00 47 1014.3
20220517174053 89 169 3.0 10.0 0.00 0.00 0.00 46 1014.4
20220517173551 88 139 3.0 10.0 0.00 0.00 0.00 48 1014.3
20220517173104 88 200 4.0 10.0 0.00 0.00 0.00 46 1014.3
20220517172551 88 150 3.0 9.0 0.00 0.00 0.00 48 1014.5
20220517172055 88 177 4.0 9.0 0.00 0.00 0.00 47 1014.4
20220517171604 88 221 3.0 9.0 0.00 0.00 0.00 47 1014.5
20220517171050 87 220 2.0 9.0 0.00 0.00 0.00 51 1014.6
20220517170552 86 198 3.0 9.0 0.00 0.00 0.00 51 1014.6
20220517170104 86 146 3.0 8.0 0.00 0.00 0.00 51 1014.8
20220517165552 85 0 2.0 8.0 0.00 0.00 0.00 52 1014.8